ZS1TG Weather Reports


time (UTC)temp
F
wind
direction
speed
knots
gust
knots
rain 1hr
in
rain 24hr
in
rain mn
in
humidity
%
barometer
mb
20260509211554 54 304 0.0 0.0 0.00 0.01 0.01 87 999.5
20260509210052 55 294 0.0 0.0 0.00 0.01 0.01 85 999.9
20260509204543 55 296 0.0 0.0 0.00 0.01 0.01 84 1000.1
20260509203040 55 304 0.0 0.0 0.00 0.01 0.01 82 1000.2
20260509201539 56 299 0.0 0.0 0.00 0.01 0.01 83 1000.4
20260509200047 56 64 0.0 0.0 0.00 0.01 0.01 82 1000.3
20260509194538 56 64 0.0 0.0 0.00 0.01 0.01 80 1000.4
20260509193037 56 64 0.0 0.0 0.00 0.01 0.01 78 1000.5
20260509191535 57 86 0.0 0.0 0.00 0.01 0.01 77 1000.8
20260509190038 58 78 0.0 0.0 0.00 0.01 0.01 75 1001.1
20260509184536 57 78 0.0 0.0 0.00 0.01 0.01 75 1001.3
20260509183029 57 64 0.0 0.0 0.00 0.01 0.01 77 1001.6
20260509181527 57 75 0.0 0.0 0.00 0.01 0.01 79 1001.7
20260509180026 57 68 0.0 0.0 0.00 0.01 0.01 80 1002.0
20260509174524 57 95 0.0 0.0 0.00 0.01 0.01 82 1002.1
20260509173051 57 57 0.0 0.0 0.00 0.01 0.01 83 1002.4
20260509171528 58 83 0.0 0.0 0.00 0.01 0.01 83 1002.5
20260509170021 58 157 0.0 0.0 0.00 0.01 0.01 84 1002.5
20260509164519 58 86 0.0 0.0 0.00 0.01 0.01 84 1002.7
20260509163023 59 185 0.0 7.8 0.00 0.01 0.01 82 1002.6
20260509161519 59 142 3.5 8.7 0.00 0.01 0.01 80 1002.6
20260509160022 60 156 4.3 8.7 0.00 0.01 0.01 79 1002.6
20260509154516 60 151 5.2 9.6 0.00 0.01 0.01 76 1002.8
20260509153027 62 140 0.0 7.8 0.00 0.01 0.01 74 1002.8
20260509151515 63 159 2.6 7.0 0.00 0.01 0.01 71 1002.8
20260509150014 65 185 2.6 7.8 0.00 0.01 0.01 69 1002.8
20260509144512 67 233 0.0 0.9 0.00 0.01 0.01 59 1002.9
20260509143013 69 121 0.0 0.9 0.00 0.01 0.01 55 1002.9
20260509141511 70 119 0.0 0.0 0.00 0.01 0.01 50 1002.9
20260509140009 70 45 0.0 0.0 0.00 0.01 0.01 49 1003.1
20260509134506 70 13 0.0 0.0 0.00 0.01 0.01 50 1003.3
20260509133005 70 33 0.0 0.0 0.00 0.01 0.01 49 1003.4
20260509131504 70 191 0.0 0.0 0.00 0.01 0.01 50 1003.5
20260509130128 70 14 0.0 0.0 0.00 0.01 0.01 49 1003.8
20260509124559 69 46 0.0 0.0 0.00 0.01 0.01 51 1004.0
20260509123120 69 282 0.0 0.0 0.00 0.01 0.01 52 1004.2
20260509121552 68 12 0.0 0.9 0.00 0.01 0.01 53 1004.4
20260509120052 68 341 0.0 0.9 0.00 0.01 0.01 55 1004.7
20260509114616 68 82 0.0 0.9 0.00 0.01 0.01 54 1004.9
20260509113046 68 45 0.0 0.9 0.00 0.01 0.01 56 1005.2
20260509111541 68 54 0.0 0.9 0.00 0.01 0.01 55 1005.6
20260509110039 67 358 0.0 0.9 0.00 0.01 0.01 56 1005.8
20260509104534 68 28 0.0 0.9 0.00 0.01 0.01 55 1006.2
20260509103030 67 351 0.0 0.9 0.00 0.01 0.01 54 1006.7
20260509101535 66 298 0.0 0.9 0.00 0.01 0.01 59 1007.0
20260509100021 66 19 0.0 0.9 0.00 0.01 0.01 62 1007.3
20260509094527 65 17 0.0 0.9 0.00 0.01 0.01 64 1007.5
20260509093014 64 27 0.0 0.0 0.00 0.01 0.01 70 1007.8
20260509091512 63 89 0.0 0.0 0.00 0.01 0.01 73 1008.2
20260509090005 61 74 0.0 0.0 0.00 0.01 0.01 75 1008.5
20260509084502 60 27 0.0 0.0 0.00 0.01 0.01 79 1008.7
20260509083057 59 104 0.0 0.0 0.00 0.01 0.01 80 1009.0
20260509081558 58 75 0.0 0.0 0.00 0.01 0.01 82 1009.1
20260509080057 57 76 0.0 0.0 0.00 0.01 0.01 84 1009.1
20260509074546 56 133 0.0 0.0 0.00 0.02 0.01 86 1009.4
20260509073046 55 87 0.0 0.0 0.00 0.02 0.01 88 1009.3
20260509071541 54 86 0.0 0.0 0.00 0.02 0.01 91 1009.4
20260509070033 53 53 0.0 0.0 0.00 0.02 0.01 95 1009.5
20260509064531 52 64 0.0 0.0 0.00 0.02 0.01 96 1009.6
20260509061527 50 76 0.0 0.0 0.00 0.02 0.01 98 1009.7
20260509060019 49 58 0.0 0.0 0.00 0.02 0.01 98 1009.7
20260509054515 48 135 0.0 0.0 0.00 0.03 0.01 98 1009.9
20260509053015 46 145 0.0 0.0 0.00 0.03 0.01 98 1010.1
20260509051510 46 138 0.0 0.0 0.00 0.03 0.01 98 1010.3
20260509050017 44 138 0.0 0.0 0.01 0.03 0.01 97 1010.5
20260509044507 43 161 0.0 0.0 0.01 0.04 0.01 97 1010.6
20260509043005 43 161 0.0 0.0 0.01 0.04 0.01 97 1010.7
20260509041502 43 160 0.0 0.0 0.01 0.04 0.01 97 1010.9
20260509040004 44 161 0.0 0.0 0.00 0.03 0.00 97 1011.0
20260509034501 44 161 0.0 0.0 0.00 0.05 0.00 97 1011.2
20260509033001 44 161 0.0 0.0 0.00 0.05 0.00 97 1011.2
20260509031611 44 161 0.0 0.0 0.00 0.05 0.00 97 1011.3
20260509030106 44 161 0.0 0.0 0.00 0.05 0.00 97 1011.4
20260509024558 44 160 0.0 0.0 0.00 0.13 0.00 97 1011.4
20260509023111 44 161 0.0 0.0 0.00 0.13 0.00 97 1011.4
20260509021556 44 161 0.0 0.0 0.00 0.13 0.00 97 1011.5
20260509020054 44 160 0.0 0.0 0.00 0.13 0.00 96 1011.7
20260509014552 45 161 0.0 0.0 0.00 0.14 0.00 97 1011.8
20260509013050 44 161 0.0 0.0 0.00 0.14 0.00 96 1012.1
20260509011548 45 161 0.0 0.0 0.00 0.14 0.00 97 1012.3
20260509010047 45 161 0.0 0.0 0.00 0.14 0.00 96 1012.5
20260509004542 45 160 0.0 0.0 0.00 0.14 0.00 96 1012.7
20260509003045 45 161 0.0 0.0 0.00 0.14 0.00 96 1012.9
20260509001535 46 161 0.0 0.0 0.00 0.14 0.00 96 1013.2
20260509000034 46 161 0.0 0.0 0.00 0.14 0.00 96 1013.2
20260508234532 46 172 0.0 0.0 0.00 0.14 0.00 96 1013.3
20260508233031 46 172 0.0 0.0 0.00 0.14 0.00 96 1013.3
20260508231528 46 171 0.0 0.0 0.00 0.14 0.00 96 1013.4
20260508230025 47 172 0.0 0.0 0.00 0.14 0.00 96 1013.4
20260508224524 47 171 0.0 0.0 0.00 0.14 0.00 96 1013.6
20260508223027 47 173 0.0 0.0 0.00 0.14 0.00 96 1013.6
20260508221520 47 166 0.0 0.0 0.00 0.14 0.00 96 1013.6
20260508220059 47 166 0.0 0.0 0.00 0.14 0.00 96 1013.9
20260508214516 47 144 0.0 0.0 0.00 0.14 0.14 95 1014.0
20260508213014 48 144 0.0 0.0 0.00 0.14 0.14 95 1014.1